Hyderabad, India

10:15 AM IST on January 18, 2017 (GMT +0530)
Hyderabad

Weather History for 43128 - July, 2013

Change the Weather History Date:

Saturday, July 20, 2013

  Actual Average Record
Temperature  
Mean Temperature 76 °F -  
Max Temperature 82 °F 83 °F - ()
Min Temperature 71 °F 72 °F - ()
Cooling Degree Days 12    
Growing Degree Days 26 (Base 50)    
Moisture  
Dew Point 69 °F    
Average Humidity 71    
Maximum Humidity 92    
Minimum Humidity 54    
Precipitation  
Precipitation 0.00 in 0.21 in - ()
Sea Level Pressure  
Sea Level Pressure 29.68 in    
Wind  
Wind Speed 7 mph ()    
Max Wind Speed 14 mph    
Max Gust Speed 23 mph    
Visibility 3.4 miles    
Events Rain    
T = Trace of Precipitation, MM = Missing Value Source: Averaged Metar Reports

Daily Weather History Graph

Daily Weather History Graph

Search for Another Location

Airport or City:

Trip Planner

Search our weather history database for the weather conditions in past years. The results will help you decide how hot, cold, wet, or windy it might be!

Date:

Astronomy

Jul. 20, 2013 Rise Set
Actual Time 5:51 AM IST 6:53 PM IST
Civil Twilight 5:27 AM IST 7:16 PM IST
Nautical Twilight 5:00 AM IST 7:44 PM IST
Astronomical Twilight 4:31 AM IST 8:13 PM IST
Moon 4:29 PM IST (7/20) 3:02 AM IST (7/20)
Length of Visible Light 13h 48m
Length of Day
13h 01m
Waxing Gibbous, 91% of the Moon is Illuminated
Jul 20
Waxing Gibbous
Jul 22
Full
Jul 29
Last Quarter
Aug 7
New
Aug 14
First Quarter

Hourly Weather History & Observations

Time (IST) Temp. Heat Index Dew Point Humidity Pressure Visibility Wind Dir Wind Speed Gust Speed Precip Events Conditions
2:30 AM 74 °F - 70 °F 84% 29.56 in 2 mi Calm Calm - - Rain Light Drizzle
5:30 AM 73 °F - 71 °F 92% 29.58 in 2 mi Calm Calm - - Rain Light Drizzle
6:10 AM 71.6 °F - 66.2 °F 83% 29.71 in 3.1 mi West 6.9 mph - N/A   Haze
7:10 AM 73.4 °F - 66.2 °F 78% 29.71 in 3.1 mi West 9.2 mph - N/A   Haze
8:10 AM 73.4 °F - 68.0 °F 83% 29.74 in 3.1 mi West 12.7 mph - N/A   Haze
8:30 AM 77 °F - 71 °F 76% 29.62 in 2 mi WNW 4.6 mph - -   Haze
9:10 AM 77.0 °F - 68.0 °F 74% 29.77 in 3.1 mi West 13.8 mph - N/A   Haze
10:10 AM 78.8 °F - 68.0 °F 69% 29.74 in 3.7 mi West 11.5 mph - N/A   Mostly Cloudy
11:10 AM 80.6 °F 83.9 °F 69.8 °F 70% 29.74 in 3.7 mi West 11.5 mph 23.0 mph N/A   Mostly Cloudy
11:30 AM 81 °F - 71 °F 64% 29.63 in 6 mi West 11.5 mph - -   Overcast
12:10 PM 82.4 °F 86.3 °F 69.8 °F 66% 29.74 in 3.7 mi West 11.5 mph 23.0 mph N/A   Mostly Cloudy
1:10 PM 82.4 °F 85.4 °F 68.0 °F 62% 29.74 in 3.7 mi WSW 11.5 mph 23.0 mph N/A   Mostly Cloudy
2:10 PM 82.4 °F 83.9 °F 64.4 °F 54% 29.71 in 3.7 mi WNW 11.5 mph - N/A   Mostly Cloudy
2:30 PM 82 °F - 70 °F 59% 29.58 in 6 mi West 9.2 mph - -   Overcast
3:10 PM 80.6 °F 83.2 °F 68.0 °F 65% 29.68 in 3.7 mi West 13.8 mph - N/A   Mostly Cloudy
4:10 PM 82.4 °F 84.6 °F 66.2 °F 58% 29.68 in 3.7 mi WNW 13.8 mph - N/A   Mostly Cloudy
5:10 PM 80.6 °F 83.2 °F 68.0 °F 65% 29.68 in 3.7 mi WNW 13.8 mph - N/A   Mostly Cloudy
5:30 PM 80 °F - 70 °F 65% 29.56 in 2 mi West 3.5 mph - -   Haze
6:10 PM 80.6 °F 83.2 °F 68.0 °F 65% 29.68 in 3.7 mi West 11.5 mph - N/A   Mostly Cloudy
7:10 PM 78.8 °F - 68.0 °F 69% 29.68 in 3.7 mi West 11.5 mph - N/A   Mostly Cloudy
8:10 PM 78.8 °F - 68.0 °F 69% 29.68 in 3.7 mi WNW 13.8 mph - N/A   Mostly Cloudy
8:30 PM 78 °F - 72 °F 78% 29.62 in 2 mi West 4.6 mph - -   Haze
9:10 PM 77.0 °F - 68.0 °F 74% 29.74 in 3.7 mi West 9.2 mph - N/A   Mostly Cloudy
11:30 PM 77 °F - 73 °F 84% 29.65 in 2 mi West 6.9 mph - -   Haze